sat.trackr.live / text

‹ back to catalog

STARLINK-4367

NORAD 53229 · 2022-084AS

PAYLOAD ACTIVE UNKNOWN

§ Identity

Operator
Country
US
Launch date
2022-07-22
Launch site
AFWTR
Launch vehicle
Mass (kg)
RCS (m²)

Purposes: comms

External: N2YO · Heavens-Above · Gunter

§ Orbital elements

Epoch: 2026-05-25T02:44:57.564096Z

Period
95.64 min
Inclination
97.4502°
Eccentricity
0.0002126
Mean motion
15.05655406 rev/d
Perigee alt
548.0 km
Apogee alt
551.0 km
Semi-major
6,927.6 km
B*
-6.3101e-5
RAAN
206.1616°
Arg perigee
124.2871°
Mean anomaly
235.8558°
Rev number
21,088

§ Raw data

STARLINK-43671 53229U 22084AS  26145.11455514 -.00000969  00000+0 -63101-4 0  99912 53229  97.4502 206.1616 0002126 124.2871 235.8558 15.05655406210880

JSON: /api/v1/satellites/53229 · /tle

For live sub-satellite position, see the globe view (requires WebGL).

§ Visibility from observer

Set your observer location to see the next 7 days of passes ≥ 10°. The values pass through the URL so the page stays shareable.

No JS? Fill the form by hand. The geolocation button needs JavaScript.